Location: Adaghas
(31.2259°N, 9.0496°W)
Time: 04:06:52
(UTC+00:00)

Cosmos 1437 - Pass Details

Date: 18 September 2020
Orbit: 366 x 369 km, 81.2° (Epoch: 23 October)

Event Time Altitude Azimuth Distance (km) Brightness Sun altitude
Rises 19:46:43 0° 351° (N) 2,241 6.7 -15.5°
Reaches altitude 10° 19:48:42 10° 351° (N) 1,386 5.6 -15.9°
Maximum altitude 19:51:43 83° 263° (W) 382 2.5 -16.6°
Enters shadow 19:53:48 18° 176° (S) 1,005 4.5 -17.0°
